Sedalia, MO

3:32 AM CST on December 17, 2017 (GMT -0600)
Sedalia Memorial

Weather History for KDMO - August, 2013

Change the Weather History Date:

Sunday, August 4, 2013

  Actual Average Record
Temperature  
Mean Temperature 73 °F 79 °F  
Max Temperature 76 °F 90 °F 101 °F (1956)
Min Temperature 69 °F 69 °F 48 °F (1974)
Degree Days  
Heating Degree Days 0 0  
Month to date heating degree days 0 0  
Since 1 June heating degree days 9 6  
Since 1 July heating degree days 0 0  
Cooling Degree Days 8 14  
Month to date cooling degree days 48 56  
Year to date cooling degree days 880 936  
Since 1 June cooling degree days 732 797  
Growing Degree Days 22 (Base 50)    
Moisture  
Dew Point 67 °F    
Average Humidity 79    
Maximum Humidity 93    
Minimum Humidity 64    
Precipitation  
Precipitation T in 0.09 in 1.10 in (1953)
Month to date precipitation 0.05 0.32  
Year to date precipitation 27.06 24.77  
Sea Level Pressure  
Sea Level Pressure 30.10 in    
Wind  
Wind Speed 7 mph (ESE)    
Max Wind Speed 12 mph    
Max Gust Speed 30 mph    
Visibility 10 miles    
Events      
T = Trace of Precipitation, MM = Missing Value Source: NWS Daily Summary

Daily Weather History Graph

Daily Weather History Graph

Search for Another Location

Airport or City:

Trip Planner

Search our weather history database for the weather conditions in past years. The results will help you decide how hot, cold, wet, or windy it might be!

Date:

Astronomy

Aug. 04, 2013 Rise Set
Actual Time 6:17 AM CDT 8:19 PM CDT
Civil Twilight 5:47 AM CDT 8:49 PM CDT
Nautical Twilight 5:11 AM CDT 9:24 PM CDT
Astronomical Twilight 4:33 AM CDT 10:03 PM CDT
Moon 4:18 AM CDT (8/4) 6:43 PM CDT (8/4)
Length of Visible Light 15h 01m
Length of Day
14h 02m
Waning Crescent, 4% of the Moon is Illuminated
Aug 4
Waning Crescent
Aug 6
New
Aug 14
First Quarter
Aug 20
Full
Aug 28
Last Quarter

Hourly Weather History & Observations

Time (CDT) Temp. Dew Point Humidity Pressure Visibility Wind Dir Wind Speed Gust Speed Precip Events Conditions
12:53 AM 73.9 °F 64.0 °F 71% 30.13 in 10.0 mi ENE 5.8 mph - N/A   Mostly Cloudy
1:53 AM 73.0 °F 63.0 °F 71% 30.12 in 10.0 mi East 6.9 mph - N/A   Overcast
2:53 AM 72.0 °F 63.0 °F 73% 30.10 in 10.0 mi East 4.6 mph - N/A   Overcast
3:53 AM 72.0 °F 63.0 °F 73% 30.14 in 10.0 mi East 5.8 mph - N/A   Overcast
4:53 AM 71.1 °F 62.1 °F 73% 30.12 in 10.0 mi ENE 4.6 mph - N/A   Mostly Cloudy
5:53 AM 70.0 °F 61.0 °F 73% 30.12 in 10.0 mi East 5.8 mph - N/A   Mostly Cloudy
6:53 AM 70.0 °F 61.0 °F 73% 30.12 in 10.0 mi East 6.9 mph - N/A   Overcast
7:53 AM 71.1 °F 61.0 °F 70% 30.14 in 10.0 mi East 6.9 mph - N/A   Overcast
8:53 AM 72.0 °F 61.0 °F 68% 30.14 in 10.0 mi East 6.9 mph - N/A   Overcast
9:53 AM 73.0 °F 62.1 °F 68% 30.16 in 10.0 mi ESE 5.8 mph - N/A   Mostly Cloudy
10:53 AM 75.0 °F 62.1 °F 64% 30.17 in 10.0 mi SE 8.1 mph - N/A   Overcast
11:53 AM 73.9 °F 63.0 °F 68% 30.16 in 10.0 mi SSE 6.9 mph - N/A   Overcast
12:53 PM 75.0 °F 64.0 °F 69% 30.14 in 10.0 mi SE 9.2 mph - N/A   Overcast
1:04 PM 73.4 °F 64.4 °F 73% 30.15 in 10.0 mi SE 8.1 mph - N/A   Overcast
1:53 PM 73.9 °F 66.0 °F 76% 30.13 in 10.0 mi SE 8.1 mph - N/A   Overcast
2:34 PM 75.2 °F 68.0 °F 78% 30.13 in 10.0 mi SE 6.9 mph - N/A   Scattered Clouds
2:53 PM 75.9 °F 68.0 °F 76% 30.11 in 10.0 mi ESE 5.8 mph - N/A   Partly Cloudy
3:09 PM 75.2 °F 68.0 °F 78% 30.13 in 10.0 mi East 6.9 mph - N/A   Mostly Cloudy
3:53 PM 75.9 °F 69.1 °F 79% 30.09 in 10.0 mi SSE 9.2 mph - N/A   Partly Cloudy
4:41 PM 75.2 °F 69.8 °F 83% 30.11 in 10.0 mi ESE 5.8 mph - N/A   Mostly Cloudy
4:53 PM 75.9 °F 69.1 °F 79% 30.09 in 10.0 mi SE 8.1 mph - N/A   Overcast
5:09 PM 75.2 °F 69.8 °F 83% 30.10 in 10.0 mi SE 6.9 mph - N/A   Mostly Cloudy
5:35 PM 75.2 °F 69.8 °F 83% 30.10 in 10.0 mi SE 8.1 mph - 0.00 in   Overcast
5:53 PM 73.9 °F 69.1 °F 85% 30.07 in 10.0 mi SE 8.1 mph - 0.00 in   Overcast
6:17 PM 73.4 °F 69.8 °F 88% 30.07 in 10.0 mi SE 8.1 mph - N/A   Mostly Cloudy
6:53 PM 73.9 °F 69.1 °F 85% 30.05 in 10.0 mi SE 8.1 mph - N/A   Mostly Cloudy
7:33 PM 73.4 °F 69.8 °F 88% 30.06 in 10.0 mi SSE 8.1 mph 29.9 mph N/A   Partly Cloudy
7:53 PM 73.0 °F 69.1 °F 87% 30.05 in 10.0 mi SSE 10.4 mph - N/A   Scattered Clouds
8:10 PM 73.4 °F 69.8 °F 88% 30.07 in 10.0 mi SSE 5.8 mph - N/A   Mostly Cloudy
8:21 PM 73.4 °F 69.8 °F 88% 30.07 in 10.0 mi SSE 6.9 mph - N/A   Mostly Cloudy
8:51 PM 71.6 °F 69.8 °F 94% 30.07 in 10.0 mi SSE 6.9 mph - N/A   Mostly Cloudy
8:53 PM 72.0 °F 69.1 °F 91% 30.06 in 10.0 mi SSE 6.9 mph - N/A   Overcast
9:53 PM 72.0 °F 69.1 °F 91% 30.07 in 10.0 mi ENE 4.6 mph - 0.00 in   Overcast
10:03 PM 71.6 °F 69.8 °F 94% 30.09 in 10.0 mi East 4.6 mph - N/A   Overcast
10:25 PM 71.6 °F 69.8 °F 94% 30.10 in 10.0 mi ENE 5.8 mph - N/A   Overcast
10:53 PM 72.0 °F 69.1 °F 91% 30.08 in 10.0 mi ESE 4.6 mph - N/A   Overcast
11:27 PM 71.6 °F 69.8 °F 94% 30.09 in 10.0 mi ESE 5.8 mph - N/A   Overcast
11:53 PM 72.0 °F 69.1 °F 91% 30.06 in 10.0 mi SE 5.8 mph - N/A   Overcast